QPF
0.00 0.00 0.00 0.00 0.01 0.01 0.00 0.01 0.01 0.01 0.00 0.01 0.02 0.05 0.03 0.05 0.09 0.12 0.15 0.10 0.08 0.07 0.08 0.10 0.11 0.11 0.12 0.19 0.21 0.14 0.09 0.07 0.06 0.06 0.05 0.05 0.06 0.06 0.06 0.06 0.04 0.03 0.05 0.10
0.00 0.00 0.00 0.00 0.00 0.01 0.01 0.01 0.01 0.01 0.01 0.02 0.04 0.08 0.08 0.09 0.08 0.10 0.12 0.09 0.06 0.09 0.14 0.13 0.11 0.12 0.12 0.13 0.20 0.18 0.11 0.08 0.08 0.05 0.03 0.03 0.04 0.04 0.05 0.05 0.05 0.04 0.05 0.06
0.00 0.00 0.00 0.00 0.00 0.00 0.01 0.01 0.01 0.02 0.03 0.06 0.07 0.12 0.12 0.11 0.11 0.10 0.10 0.09 0.05 0.06 0.10 0.13 0.12 0.13 0.15 0.13 0.13 0.12 0.10 0.08 0.06 0.05 0.04 0.03 0.04 0.04 0.03 0.04 0.05 0.06 0.07 0.06
0.00 0.00 0.00 0.00 0.00 0.01 0.01 0.01 0.01 0.01 0.04 0.06 0.08 0.13 0.14 0.09 0.09 0.08 0.12 0.16 0.09 0.09 0.06 0.08 0.09 0.09 0.11 0.12 0.12 0.11 0.09 0.07 0.04 0.04 0.05 0.04 0.04 0.03 0.03 0.04 0.05 0.05 0.06 0.07
0.01 0.00 0.00 0.00 0.00 0.01 0.01 0.01 0.01 0.02 0.03 0.05 0.05 0.07 0.09 0.07 0.10 0.08 0.12 0.18 0.11 0.09 0.07 0.07 0.06 0.09 0.08 0.08 0.09 0.12 0.12 0.08 0.06 0.05 0.05 0.05 0.04 0.03 0.03 0.05 0.06 0.06 0.06 0.06
0.01 0.00 0.00 0.00 0.01 0.01 0.01 0.00 0.01 0.02 0.03 0.04 0.04 0.04 0.07 0.07 0.13 0.10 0.10 0.13 0.09 0.07 0.07 0.07 0.07 0.10 0.09 0.09 0.11 0.08 0.11 0.09 0.07 0.06 0.05 0.04 0.04 0.04 0.04 0.05 0.07 0.07 0.06 0.06
0.00 0.00 0.00 0.00 0.00 0.00 0.01 0.01 0.03 0.05 0.05 0.03 0.02 0.04 0.07 0.05 0.06 0.09 0.11 0.09 0.07 0.05 0.05 0.07 0.08 0.09 0.12 0.09 0.11 0.10 0.06 0.05 0.05 0.04 0.03 0.03 0.04 0.05 0.05 0.05 0.06 0.07 0.06 0.07
0.01 0.01 0.00 0.00 0.00 0.00 0.00 0.01 0.03 0.05 0.04 0.03 0.03 0.04 0.05 0.07 0.05 0.07 0.08 0.08 0.08 0.06 0.05 0.06 0.05 0.05 0.05 0.06 0.06 0.11 0.07 0.04 0.04 0.04 0.03 0.03 0.04 0.05 0.05 0.06 0.06 0.06 0.05 0.06
0.01 0.01 0.00 0.00 0.00 0.00 0.00 0.01 0.01 0.02 0.02 0.03 0.04 0.05 0.06 0.06 0.07 0.07 0.09 0.08 0.06 0.05 0.05 0.05 0.04 0.04 0.02 0.06 0.09 0.09 0.08 0.05 0.04 0.04 0.04 0.04 0.04 0.05 0.05 0.05 0.06 0.05 0.04 0.04
0.00 0.01 0.00 0.00 0.01 0.00 0.00 0.01 0.02 0.03 0.03 0.04 0.05 0.06 0.06 0.04 0.05 0.05 0.07 0.08 0.05 0.03 0.05 0.06 0.05 0.04 0.03 0.04 0.09 0.16 0.15 0.07 0.06 0.06 0.05 0.03 0.03 0.03 0.03 0.03 0.04 0.05 0.05 0.04
0.01 0.01 0.01 0.01 0.01 0.00 0.00 0.01 0.02 0.02 0.03 0.03 0.05 0.06 0.03 0.03 0.03 0.03 0.04 0.06 0.05 0.02 0.03 0.03 0.03 0.03 0.03 0.03 0.04 0.09 0.16 0.11 0.07 0.05 0.04 0.04 0.03 0.04 0.03 0.02 0.03 0.04 0.05 0.04
0.01 0.02 0.02 0.01 0.00 0.00 0.00 0.00 0.01 0.02 0.02 0.02 0.02 0.03 0.02 0.02 0.03 0.05 0.05 0.05 0.05 0.02 0.02 0.02 0.02 0.03 0.03 0.03 0.04 0.05 0.09 0.09 0.06 0.03 0.03 0.04 0.04 0.05 0.04 0.03 0.02 0.02 0.02 0.02
0.02 0.03 0.03 0.04 0.02 0.01 0.01 0.01 0.01 0.01 0.01 0.02 0.02 0.03 0.05 0.03 0.05 0.08 0.06 0.06 0.04 0.02 0.02 0.03 0.03 0.02 0.02 0.02 0.03 0.03 0.04 0.03 0.02 0.02 0.02 0.02 0.03 0.05 0.04 0.03 0.03 0.03 0.03 0.03
0.01 0.02 0.02 0.04 0.03 0.01 0.01 0.01 0.01 0.01 0.01 0.02 0.02 0.04 0.07 0.03 0.05 0.10 0.11 0.06 0.04 0.03 0.03 0.03 0.03 0.02 0.02 0.02 0.02 0.02 0.01 0.01 0.01 0.02 0.03 0.03 0.03 0.04 0.04 0.03 0.03 0.03 0.03 0.02
0.01 0.02 0.02 0.02 0.02 0.01 0.01 0.01 0.01 0.01 0.01 0.02 0.03 0.04 0.04 0.03 0.04 0.08 0.06 0.03 0.03 0.03 0.03 0.03 0.03 0.02 0.03 0.03 0.02 0.01 0.01 0.02 0.02 0.02 0.02 0.02 0.03 0.04 0.04 0.04 0.05 0.05 0.04 0.03
0.02 0.02 0.02 0.02 0.01 0.01 0.01 0.02 0.02 0.01 0.02 0.04 0.05 0.07 0.03 0.03 0.03 0.04 0.04 0.04 0.03 0.02 0.03 0.02 0.02 0.03 0.04 0.05 0.04 0.02 0.02 0.02 0.01 0.02 0.01 0.02 0.02 0.03 0.04 0.05 0.05 0.05 0.05 0.04
0.03 0.03 0.02 0.02 0.01 0.01 0.03 0.05 0.04 0.02 0.01 0.04 0.04 0.04 0.03 0.01 0.01 0.03 0.05 0.08 0.05 0.03 0.03 0.04 0.04 0.04 0.05 0.05 0.05 0.03 0.02 0.02 0.02 0.01 0.01 0.02 0.03 0.03 0.03 0.03 0.04 0.05 0.04 0.03
0.03 0.03 0.02 0.02 0.02 0.04 0.06 0.05 0.04 0.02 0.01 0.03 0.02 0.02 0.02 0.02 0.02 0.05 0.10 0.13 0.05 0.02 0.02 0.03 0.04 0.04 0.04 0.03 0.04 0.05 0.02 0.02 0.01 0.01 0.02 0.02 0.03 0.05 0.05 0.04 0.04 0.03 0.03 0.02
0.02 0.02 0.02 0.02 0.03 0.06 0.07 0.04 0.03 0.02 0.02 0.02 0.02 0.02 0.04 0.05 0.07 0.06 0.07 0.06 0.04 0.02 0.02 0.03 0.03 0.03 0.03 0.03 0.04 0.02 0.02 0.01 0.02 0.02 0.02 0.03 0.03 0.03 0.03 0.03 0.03 0.02 0.02 0.01
0.01 0.01 0.02 0.03 0.03 0.05 0.04 0.02 0.02 0.02 0.03 0.03 0.04 0.05 0.08 0.12 0.13 0.09 0.05 0.05 0.04 0.03 0.02 0.01 0.01 0.02 0.02 0.02 0.02 0.01 0.01 0.01 0.02 0.02 0.02 0.02 0.03 0.03 0.03 0.03 0.02 0.01 0.01 0.01
0.01 0.01 0.02 0.02 0.03 0.04 0.03 0.03 0.02 0.03 0.05 0.07 0.09 0.06 0.08 0.14 0.16 0.11 0.09 0.05 0.04 0.03 0.02 0.01 0.01 0.02 0.01 0.01 0.01 0.01 0.01 0.01 0.01 0.01 0.01 0.02 0.03 0.03 0.03 0.02 0.01 0.01 0.01 0.01
0.03 0.03 0.03 0.02 0.02 0.03 0.03 0.02 0.03 0.07 0.09 0.10 0.09 0.04 0.05 0.08 0.10 0.06 0.06 0.05 0.02 0.02 0.02 0.02 0.02 0.02 0.01 0.01 0.01 0.01 0.01 0.01 0.01 0.01 0.01 0.01 0.02 0.02 0.01 0.01 0.01 0.01 0.01 0.01
0.01 0.02 0.02 0.02 0.04 0.05 0.03 0.03 0.03 0.08 0.08 0.07 0.05 0.04 0.04 0.04 0.04 0.03 0.04 0.04 0.03 0.02 0.03 0.02 0.02 0.02 0.02 0.01 0.01 0.02 0.02 0.01 0.01 0.01 0.01 0.01 0.01 0.01 0.01 0.02 0.01 0.01 0.01 0.01
0.01 0.01 0.02 0.03 0.05 0.06 0.05 0.05 0.04 0.03 0.03 0.02 0.02 0.02 0.02 0.02 0.02 0.03 0.05 0.03 0.03 0.02 0.03 0.01 0.01 0.02 0.02 0.02 0.02 0.02 0.02 0.02 0.02 0.01 0.01 0.01 0.01 0.02 0.02 0.02 0.01 0.01 0.01 0.02
0.01 0.01 0.02 0.03 0.03 0.04 0.05 0.05 0.04 0.02 0.01 0.01 0.01 0.01 0.01 0.01 0.02 0.02 0.02 0.02 0.02 0.03 0.03 0.01 0.01 0.01 0.01 0.01 0.01 0.01 0.02 0.03 0.02 0.03 0.04 0.04 0.03 0.02 0.01 0.01 0.02 0.01 0.01 0.01
0.00 0.01 0.01 0.02 0.02 0.03 0.05 0.04 0.03 0.02 0.02 0.01 0.01 0.01 0.01 0.01 0.01 0.01 0.02 0.02 0.03 0.04 0.03 0.02 0.01 0.01 0.01 0.01 0.01 0.01 0.02 0.03 0.03 0.04 0.05 0.05 0.04 0.03 0.02 0.02 0.03 0.03 0.02 0.01
MSLP
1011.16 1011.77 1012.22 1012.55 1012.82 1013.12 1013.54 1014.12 1014.90 1015.81 1016.80 1017.76 1018.60 1019.23 1019.62 1019.74 1019.67 1019.44 1019.15 1018.86 1018.60 1018.39 1018.20 1017.98 1017.71 1017.32 1016.82 1016.20 1015.50 1014.77 1014.08 1013.47 1012.98 1012.61 1012.35 1012.18 1012.06 1011.95 1011.82 1011.68 1011.53 1011.38 1011.26 1011.19
1011.93 1012.39 1012.67 1012.83 1012.97 1013.18 1013.57 1014.19 1015.03 1016.05 1017.15 1018.21 1019.11 1019.78 1020.17 1020.28 1020.18 1019.93 1019.62 1019.31 1019.05 1018.84 1018.64 1018.42 1018.11 1017.69 1017.14 1016.49 1015.77 1015.04 1014.38 1013.82 1013.41 1013.12 1012.94 1012.82 1012.72 1012.61 1012.45 1012.25 1012.03 1011.83 1011.66 1011.57
1012.70 1012.99 1013.09 1013.08 1013.08 1013.21 1013.58 1014.22 1015.14 1016.25 1017.44 1018.57 1019.53 1020.22 1020.61 1020.69 1020.55 1020.27 1019.93 1019.61 1019.34 1019.13 1018.93 1018.70 1018.39 1017.95 1017.39 1016.72 1016.01 1015.32 1014.71 1014.22 1013.88 1013.67 1013.56 1013.49 1013.42 1013.29 1013.10 1012.86 1012.59 1012.33 1012.12 1012.00
1013.44 1013.55 1013.48 1013.32 1013.21 1013.28 1013.64 1014.32 1015.31 1016.50 1017.76 1018.95 1019.94 1020.63 1020.99 1021.03 1020.84 1020.50 1020.12 1019.77 1019.48 1019.26 1019.06 1018.84 1018.53 1018.10 1017.55 1016.91 1016.24 1015.59 1015.04 1014.62 1014.35 1014.21 1014.14 1014.11 1014.04 1013.91 1013.70 1013.42 1013.11 1012.81 1012.58 1012.43
1014.13 1014.08 1013.85 1013.57 1013.39 1013.45 1013.82 1014.56 1015.61 1016.87 1018.19 1019.41 1020.40 1021.06 1021.37 1021.34 1021.08 1020.67 1020.23 1019.83 1019.52 1019.28 1019.08 1018.87 1018.58 1018.18 1017.67 1017.07 1016.44 1015.85 1015.35 1014.98 1014.76 1014.65 1014.62 1014.59 1014.53 1014.39 1014.16 1013.86 1013.53 1013.22 1012.97 1012.80
1014.77 1014.58 1014.24 1013.89 1013.68 1013.74 1014.17 1014.96 1016.08 1017.40 1018.74 1019.97 1020.93 1021.54 1021.77 1021.66 1021.30 1020.81 1020.30 1019.85 1019.49 1019.24 1019.04 1018.84 1018.58 1018.22 1017.76 1017.21 1016.63 1016.08 1015.62 1015.29 1015.08 1014.98 1014.94 1014.91 1014.84 1014.69 1014.45 1014.15 1013.82 1013.51 1013.26 1013.10
1015.37 1015.07 1014.66 1014.29 1014.09 1014.19 1014.67 1015.52 1016.69 1018.03 1019.38 1020.57 1021.47 1022.01 1022.15 1021.95 1021.50 1020.93 1020.35 1019.84 1019.45 1019.18 1018.99 1018.81 1018.58 1018.27 1017.86 1017.36 1016.82 1016.31 1015.86 1015.53 1015.31 1015.18 1015.12 1015.06 1014.97 1014.81 1014.57 1014.29 1013.98 1013.69 1013.46 1013.30
1015.92 1015.57 1015.14 1014.77 1014.61 1014.76 1015.29 1016.18 1017.36 1018.69 1020.00 1021.13 1021.96 1022.40 1022.46 1022.16 1021.64 1021.00 1020.37 1019.82 1019.42 1019.14 1018.95 1018.80 1018.61 1018.34 1017.97 1017.52 1017.02 1016.52 1016.08 1015.72 1015.46 1015.29 1015.18 1015.08 1014.96 1014.79 1014.57 1014.31 1014.03 1013.78 1013.58 1013.45
1016.43 1016.07 1015.66 1015.33 1015.22 1015.41 1015.97 1016.86 1018.02 1019.29 1020.52 1021.56 1022.28 1022.64 1022.61 1022.25 1021.67 1021.00 1020.35 1019.79 1019.38 1019.11 1018.95 1018.82 1018.67 1018.44 1018.12 1017.70 1017.23 1016.73 1016.27 1015.88 1015.57 1015.35 1015.18 1015.03 1014.88 1014.71 1014.50 1014.28 1014.05 1013.84 1013.68 1013.57
1016.88 1016.55 1016.19 1015.93 1015.87 1016.09 1016.64 1017.50 1018.58 1019.74 1020.85 1021.77 1022.38 1022.64 1022.55 1022.15 1021.56 1020.90 1020.26 1019.73 1019.34 1019.10 1018.96 1018.86 1018.74 1018.55 1018.27 1017.88 1017.43 1016.94 1016.46 1016.04 1015.68 1015.40 1015.18 1014.99 1014.82 1014.64 1014.46 1014.27 1014.08 1013.92 1013.80 1013.71
1017.23 1016.98 1016.71 1016.52 1016.51 1016.75 1017.26 1018.03 1018.99 1020.00 1020.96 1021.73 1022.22 1022.39 1022.26 1021.86 1021.30 1020.68 1020.10 1019.63 1019.29 1019.08 1018.97 1018.91 1018.81 1018.65 1018.40 1018.04 1017.60 1017.13 1016.65 1016.20 1015.82 1015.49 1015.23 1015.02 1014.83 1014.66 1014.49 1014.33 1014.19 1014.07 1013.97 1013.90
1017.48 1017.35 1017.19 1017.08 1017.11 1017.34 1017.79 1018.44 1019.24 1020.07 1020.85 1021.46 1021.84 1021.94 1021.79 1021.42 1020.93 1020.39 1019.89 1019.49 1019.22 1019.06 1018.98 1018.93 1018.85 1018.71 1018.47 1018.14 1017.73 1017.27 1016.81 1016.36 1015.97 1015.64 1015.36 1015.13 1014.94 1014.78 1014.63 1014.50 1014.38 1014.28 1014.21 1014.14
1017.64 1017.64 1017.59 1017.57 1017.64 1017.84 1018.21 1018.73 1019.35 1019.99 1020.58 1021.04 1021.31 1021.36 1021.22 1020.90 1020.50 1020.06 1019.67 1019.36 1019.14 1019.02 1018.97 1018.92 1018.85 1018.71 1018.48 1018.17 1017.78 1017.36 1016.92 1016.51 1016.14 1015.82 1015.55 1015.33 1015.15 1014.99 1014.86 1014.74 1014.64 1014.55 1014.48 1014.41
1017.73 1017.85 1017.92 1017.97 1018.07 1018.25 1018.53 1018.91 1019.35 1019.81 1020.23 1020.55 1020.73 1020.75 1020.63 1020.39 1020.08 1019.76 1019.47 1019.24 1019.09 1019.00 1018.94 1018.88 1018.79 1018.64 1018.41 1018.11 1017.76 1017.37 1016.98 1016.61 1016.28 1016.00 1015.76 1015.56 1015.40 1015.26 1015.13 1015.02 1014.92 1014.82 1014.74 1014.65
1017.79 1018.02 1018.17 1018.29 1018.40 1018.55 1018.74 1019.00 1019.29 1019.59 1019.86 1020.06 1020.17 1020.18 1020.09 1019.93 1019.73 1019.52 1019.33 1019.17 1019.06 1018.98 1018.91 1018.83 1018.70 1018.52 1018.28 1017.98 1017.65 1017.31 1016.97 1016.66 1016.38 1016.15 1015.95 1015.79 1015.64 1015.51 1015.39 1015.27 1015.16 1015.05 1014.93 1014.82
1017.87 1018.15 1018.36 1018.51 1018.63 1018.74 1018.86 1019.01 1019.17 1019.34 1019.49 1019.61 1019.68 1019.69 1019.65 1019.56 1019.46 1019.35 1019.24 1019.15 1019.07 1018.99 1018.89 1018.76 1018.59 1018.37 1018.11 1017.81 1017.50 1017.19 1016.90 1016.65 1016.43 1016.25 1016.09 1015.96 1015.83 1015.71 1015.58 1015.45 1015.32 1015.18 1015.03 1014.88
1017.98 1018.27 1018.49 1018.64 1018.74 1018.81 1018.87 1018.94 1019.01 1019.08 1019.15 1019.21 1019.25 1019.27 1019.28 1019.27 1019.25 1019.22 1019.19 1019.15 1019.09 1019.00 1018.88 1018.70 1018.48 1018.22 1017.93 1017.63 1017.33 1017.05 1016.80 1016.59 1016.42 1016.28 1016.17 1016.06 1015.95 1015.82 1015.69 1015.53 1015.37 1015.20 1015.02 1014.83
1018.12 1018.36 1018.54 1018.66 1018.72 1018.75 1018.76 1018.76 1018.76 1018.77 1018.79 1018.81 1018.85 1018.89 1018.94 1019.00 1019.05 1019.09 1019.12 1019.12 1019.08 1018.99 1018.84 1018.64 1018.39 1018.10 1017.79 1017.47 1017.18 1016.92 1016.70 1016.53 1016.39 1016.28 1016.18 1016.09 1015.98 1015.85 1015.70 1015.52 1015.33 1015.12 1014.91 1014.69
1018.25 1018.40 1018.50 1018.56 1018.57 1018.55 1018.51 1018.47 1018.43 1018.40 1018.39 1018.40 1018.43 1018.50 1018.58 1018.69 1018.80 1018.90 1018.97 1019.01 1019.00 1018.92 1018.77 1018.56 1018.30 1018.00 1017.69 1017.38 1017.09 1016.84 1016.64 1016.48 1016.36 1016.26 1016.17 1016.08 1015.96 1015.81 1015.64 1015.44 1015.22 1014.98 1014.74 1014.50
1018.31 1018.34 1018.34 1018.32 1018.26 1018.20 1018.13 1018.05 1017.99 1017.94 1017.92 1017.92 1017.96 1018.04 1018.15 1018.29 1018.44 1018.58 1018.70 1018.78 1018.80 1018.76 1018.64 1018.45 1018.21 1017.93 1017.63 1017.34 1017.07 1016.83 1016.64 1016.49 1016.37 1016.26 1016.16 1016.05 1015.92 1015.76 1015.56 1015.34 1015.09 1014.84 1014.57 1014.31
1018.21 1018.13 1018.02 1017.91 1017.80 1017.70 1017.60 1017.52 1017.45 1017.40 1017.38 1017.38 1017.43 1017.52 1017.64 1017.79 1017.96 1018.13 1018.29 1018.41 1018.48 1018.48 1018.42 1018.28 1018.09 1017.86 1017.61 1017.35 1017.10 1016.89 1016.70 1016.55 1016.42 1016.30 1016.18 1016.05 1015.89 1015.71 1015.49 1015.25 1014.99 1014.71 1014.43 1014.16
1017.90 1017.71 1017.51 1017.34 1017.19 1017.06 1016.96 1016.88 1016.83 1016.80 1016.79 1016.80 1016.85 1016.94 1017.06 1017.21 1017.39 1017.58 1017.76 1017.92 1018.03 1018.10 1018.10 1018.04 1017.92 1017.76 1017.57 1017.37 1017.16 1016.97 1016.79 1016.63 1016.49 1016.35 1016.21 1016.05 1015.88 1015.67 1015.44 1015.18 1014.91 1014.62 1014.33 1014.05
1017.33 1017.05 1016.80 1016.59 1016.42 1016.30 1016.22 1016.18 1016.16 1016.16 1016.18 1016.22 1016.27 1016.36 1016.47 1016.61 1016.78 1016.96 1017.16 1017.34 1017.50 1017.63 1017.70 1017.72 1017.69 1017.61 1017.49 1017.34 1017.18 1017.02 1016.86 1016.70 1016.55 1016.39 1016.23 1016.06 1015.86 1015.64 1015.40 1015.13 1014.85 1014.56 1014.26 1013.96
1016.51 1016.18 1015.90 1015.67 1015.52 1015.44 1015.41 1015.43 1015.47 1015.53 1015.60 1015.67 1015.74 1015.82 1015.92 1016.05 1016.20 1016.37 1016.56 1016.75 1016.94 1017.11 1017.24 1017.33 1017.38 1017.37 1017.32 1017.24 1017.13 1017.00 1016.85 1016.70 1016.55 1016.38 1016.21 1016.03 1015.82 1015.59 1015.34 1015.07 1014.78 1014.48 1014.17 1013.87
1015.49 1015.13 1014.84 1014.63 1014.52 1014.49 1014.54 1014.65 1014.78 1014.92 1015.05 1015.17 1015.27 1015.37 1015.47 1015.58 1015.70 1015.85 1016.03 1016.21 1016.41 1016.59 1016.76 1016.89 1016.99 1017.04 1017.05 1017.01 1016.94 1016.85 1016.73 1016.59 1016.44 1016.28 1016.11 1015.92 1015.71 1015.48 1015.23 1014.95 1014.66 1014.35 1014.03 1013.71
1014.35 1013.98 1013.69 1013.52 1013.45 1013.50 1013.64 1013.84 1014.07 1014.31 1014.53 1014.73 1014.89 1015.02 1015.13 1015.23 1015.34 1015.46 1015.60 1015.76 1015.93 1016.11 1016.28 1016.42 1016.54 1016.62 1016.66 1016.65 1016.61 1016.54 1016.44 1016.33 1016.19 1016.04 1015.88 1015.70 1015.50 1015.28 1015.03 1014.76 1014.46 1014.14 1013.80 1013.46
Thickness
5757 5738 5727 5734 5739 5737 5733 5729 5726 5735 5747 5738 5727 5723 5725 5729 5728 5725 5725 5724 5723 5723 5725 5727 5727 5727 5724 5721 5719 5717 5717 5718 5718 5716 5712 5710 5708 5709 5708 5708 5707 5706 5705 5705
5735 5729 5745 5751 5749 5742 5734 5725 5723 5732 5742 5733 5719 5715 5719 5721 5720 5722 5721 5720 5719 5718 5718 5719 5720 5720 5718 5716 5714 5713 5713 5714 5714 5713 5711 5709 5707 5705 5705 5704 5703 5702 5701 5700
5728 5740 5756 5750 5741 5734 5729 5723 5723 5723 5729 5728 5716 5701 5706 5713 5717 5719 5718 5718 5717 5716 5714 5714 5713 5713 5713 5712 5712 5712 5710 5711 5711 5710 5707 5705 5702 5700 5699 5698 5697 5697 5697 5695
5736 5749 5749 5740 5734 5732 5719 5734 5733 5728 5712 5701 5708 5681 5695 5701 5704 5708 5709 5711 5711 5711 5712 5711 5709 5709 5708 5708 5708 5708 5707 5706 5706 5705 5702 5700 5696 5694 5693 5692 5693 5693 5692 5691
5733 5742 5738 5732 5735 5737 5730 5739 5732 5725 5709 5697 5698 5684 5685 5694 5693 5697 5702 5705 5706 5706 5707 5707 5707 5705 5706 5705 5704 5703 5702 5701 5700 5700 5697 5695 5692 5691 5690 5689 5688 5687 5687 5687
5739 5749 5745 5739 5742 5741 5736 5728 5722 5712 5697 5680 5688 5681 5676 5685 5691 5695 5699 5703 5704 5703 5703 5703 5703 5702 5701 5701 5699 5698 5697 5696 5695 5694 5693 5691 5689 5687 5685 5684 5683 5682 5682 5682
5723 5734 5743 5744 5730 5729 5722 5698 5680 5675 5669 5671 5688 5680 5676 5692 5698 5698 5697 5698 5699 5699 5697 5697 5697 5696 5696 5695 5694 5693 5693 5692 5692 5691 5689 5688 5687 5685 5682 5681 5679 5678 5678 5678
5701 5704 5729 5737 5727 5717 5713 5698 5672 5662 5660 5667 5681 5673 5680 5696 5700 5700 5698 5696 5696 5694 5693 5694 5694 5692 5692 5691 5690 5690 5689 5689 5690 5689 5687 5686 5685 5683 5681 5679 5678 5676 5675 5675
5699 5702 5730 5738 5738 5726 5710 5699 5698 5678 5672 5662 5668 5675 5684 5694 5693 5692 5691 5691 5691 5691 5692 5691 5691 5690 5689 5688 5687 5687 5686 5687 5687 5686 5685 5684 5683 5681 5679 5678 5677 5675 5674 5673
5711 5701 5718 5731 5731 5727 5719 5708 5689 5675 5662 5654 5663 5667 5668 5679 5683 5686 5687 5687 5688 5689 5689 5689 5688 5689 5688 5687 5686 5686 5685 5684 5684 5684 5683 5682 5680 5679 5678 5677 5675 5673 5672 5672
5712 5697 5704 5714 5710 5707 5709 5703 5691 5676 5672 5658 5650 5660 5686 5682 5684 5684 5686 5687 5687 5687 5687 5686 5686 5686 5686 5685 5684 5683 5682 5682 5681 5681 5680 5679 5678 5677 5675 5674 5673 5671 5671 5670
5709 5693 5687 5702 5718 5725 5715 5705 5691 5674 5670 5666 5656 5662 5695 5689 5688 5687 5687 5688 5688 5687 5686 5685 5684 5683 5682 5682 5681 5681 5680 5680 5679 5679 5678 5677 5676 5674 5672 5671 5670 5670 5668 5668
5709 5689 5676 5682 5694 5709 5708 5708 5700 5684 5671 5663 5656 5665 5691 5689 5687 5688 5687 5687 5686 5685 5684 5682 5682 5681 5680 5679 5679 5679 5678 5678 5678 5677 5675 5674 5673 5671 5670 5669 5668 5667 5666 5664
5714 5689 5679 5673 5681 5695 5698 5703 5703 5687 5668 5666 5668 5671 5681 5682 5682 5683 5685 5685 5684 5683 5682 5680 5679 5678 5678 5677 5677 5677 5676 5676 5676 5674 5673 5671 5670 5669 5668 5667 5666 5665 5664 5662
5707 5690 5693 5695 5702 5705 5702 5701 5701 5692 5683 5673 5674 5676 5680 5683 5683 5684 5684 5684 5683 5682 5681 5680 5678 5676 5675 5675 5675 5675 5675 5674 5674 5672 5670 5669 5668 5668 5666 5665 5664 5663 5662 5660
5701 5692 5692 5692 5703 5703 5698 5700 5700 5695 5692 5685 5681 5680 5688 5688 5686 5684 5684 5683 5681 5681 5681 5679 5678 5676 5675 5674 5673 5673 5672 5672 5672 5670 5668 5668 5667 5666 5664 5663 5662 5660 5659 5658
5696 5690 5682 5677 5693 5696 5683 5693 5695 5693 5693 5688 5678 5682 5688 5685 5684 5683 5683 5683 5681 5680 5680 5679 5677 5675 5674 5673 5673 5671 5671 5671 5669 5668 5667 5666 5665 5663 5662 5661 5659 5658 5656 5655
5694 5687 5675 5672 5678 5667 5682 5703 5702 5694 5692 5694 5690 5689 5689 5687 5686 5686 5686 5684 5682 5681 5680 5678 5677 5675 5674 5674 5673 5672 5671 5669 5668 5667 5666 5665 5663 5661 5660 5659 5657 5655 5654 5653
5700 5688 5675 5665 5663 5671 5688 5699 5698 5690 5685 5694 5691 5690 5689 5688 5684 5683 5687 5687 5684 5682 5681 5678 5677 5676 5674 5673 5672 5671 5669 5667 5666 5665 5664 5663 5662 5659 5658 5657 5655 5654 5652 5650
5698 5690 5675 5667 5662 5660 5679 5701 5708 5695 5678 5694 5693 5690 5687 5684 5671 5675 5685 5686 5684 5682 5680 5678 5677 5675 5673 5672 5671 5669 5666 5665 5664 5664 5663 5662 5661 5659 5657 5656 5654 5653 5651 5649
5679 5676 5669 5662 5658 5668 5691 5703 5702 5675 5675 5694 5695 5691 5688 5683 5680 5683 5686 5684 5683 5681 5680 5679 5676 5673 5672 5671 5669 5666 5665 5663 5664 5664 5663 5661 5660 5658 5656 5654 5653 5651 5649 5646
5671 5664 5662 5659 5654 5662 5694 5696 5686 5683 5693 5696 5695 5692 5689 5686 5686 5685 5685 5683 5681 5679 5679 5677 5674 5672 5671 5671 5668 5665 5663 5663 5664 5663 5661 5659 5658 5657 5655 5652 5650 5648 5645 5642
5674 5672 5668 5667 5667 5682 5692 5693 5695 5693 5692 5694 5693 5692 5690 5686 5684 5683 5682 5681 5680 5679 5677 5676 5673 5671 5670 5669 5668 5664 5663 5663 5662 5660 5658 5657 5656 5654 5652 5650 5647 5644 5641 5638
5677 5681 5673 5670 5676 5684 5689 5693 5694 5694 5693 5695 5693 5693 5690 5686 5684 5682 5681 5679 5678 5677 5676 5674 5671 5668 5667 5667 5667 5665 5664 5663 5661 5658 5656 5654 5652 5650 5649 5647 5645 5641 5638 5635
5673 5674 5667 5666 5674 5678 5683 5687 5690 5692 5694 5693 5692 5691 5690 5686 5682 5681 5679 5678 5677 5676 5674 5672 5669 5667 5666 5666 5665 5665 5664 5662 5658 5656 5654 5652 5650 5647 5645 5643 5641 5639 5637 5635
5671 5668 5662 5661 5672 5670 5675 5685 5689 5688 5688 5689 5688 5687 5687 5686 5681 5679 5677 5677 5676 5674 5673 5670 5668 5666 5665 5664 5663 5664 5663 5661 5657 5654 5651 5649 5647 5645 5643 5640 5638 5638 5636 5635